XM-4

operational
NORAD ID: 29520 Int'l Des: 2006-049 Owner: XMR Country: US
HEOCIRCULAR

关于 XM-4

正在加载描述...

实时位置

正在加载3D地球...

即将过境

高度历史

Altitude vs Time

uPlot chart will show altitude changes over time

两行轨道根数

1 29520U 06049A 26063.10548080 -.00000070 00000-0 00000+0 0 9997
2 29520 2.5783 82.3654 0008988 288.9999 288.5261 0.98812533 50309
Epoch: Mar 4, 2026 • Age: 18 hours

当前状态

高度 36236.8 km
速度 3.06 km/s
星下点 2.59°N, 96.64°E
发射日期 Oct 30, 2006
运行时间 19.3 years
类型 other

技术详情

分类 Payload
质量 5193.00 kg
干质量 2700.00 kg
总质量 5193.00 kg
长度 7.00 m
直径 3.30 m
跨度 40.40 m
形状 Box + 2 Pan
制造商 BOES
平台类型 BSS-702HP
阶段状态 In Orbit
所有者/国家 XMR/US

大型星座

Loading constellations...